Weather History for Dothan, AL

Change the Weather History Date:

Thursday, January 2, 2014

  Actual Average Record
Temperature  
Mean Temperature 44 °F 49 °F  
Max Temperature 56 °F 60 °F 79 °F (1966)
Min Temperature 32 °F 38 °F 21 °F (2001)
Degree Days  
Heating Degree Days 21 16  
Month to date heating degree days 37 32  
Since 1 July heating degree days 689 745  
Moisture  
Dew Point 48 °F    
Average Humidity 92    
Maximum Humidity 100    
Minimum Humidity 64    
Precipitation  
Precipitation 0.16 in 0.15 in 1.94 in (1936)
Month to date precipitation 0.31 0.31  
Year to date precipitation 0.31 0.31  
Sea Level Pressure  
Sea Level Pressure 29.99 in    
Wind  
Wind Speed 8 mph (WNW)    
Max Wind Speed 30 mph    
Max Gust Speed 39 mph    
Visibility 5 miles    
Events Fog , Rain , Snow    
T = Trace of Precipitation, MM = Missing Value Source: NWS Daily Summary

Daily Weather History Graph

Daily Weather History Graph

Search for Another Location

Airport:

Trip Planner

Search our weather history database for the weather conditions in past years. The results will help you decide how hot, cold, wet, or windy it might be!

Date:

Astronomy

Jan. 02, 2014 Rise Set
Actual Time 6:41 AM CST 4:50 PM CST
Civil Twilight 6:14 AM CST 5:17 PM CST
Nautical Twilight 5:44 AM CST 5:47 PM CST
Astronomical Twilight 5:14 AM CST 6:17 PM CST
Moon 7:28 AM CST (1/2) 6:38 PM CST (1/2)
Length of Visible Light 11h 03m
Length of Day
10h 09m
Waxing Crescent, 3% of the Moon is Illuminated
Jan 2
Waxing Crescent
Jan 7
First Quarter
Jan 15
Full
Jan 23
Last Quarter
Jan 30
New

Hourly Weather History & Observations

Time (CST) Temp. Windchill Dew Point Humidity Pressure Visibility Wind Dir Wind Speed Gust Speed Precip Events Conditions
12:32 AM 50.0 °F - 48.2 °F 94% 30.11 in 6.0 mi NE 4.6 mph - 0.00 in Rain Light Rain
12:53 AM 50.0 °F - 48.9 °F 96% 30.09 in 7.0 mi East 6.9 mph - 0.00 in   Overcast
1:16 AM 50.0 °F - 48.2 °F 94% 30.08 in 7.0 mi East 5.8 mph - 0.00 in Rain Light Rain
1:53 AM 50.0 °F - 50.0 °F 100% 30.09 in 5.0 mi North 4.6 mph - 0.01 in Rain Light Rain
2:10 AM 50.0 °F - 48.2 °F 94% 30.09 in 5.0 mi North 3.5 mph - 0.00 in   Overcast
2:53 AM 50.0 °F - 48.9 °F 96% 30.07 in 5.0 mi Calm Calm - 0.00 in Rain Light Rain
3:53 AM 50.0 °F - 48.9 °F 96% 30.04 in 5.0 mi ENE 3.5 mph - 0.00 in   Overcast
4:53 AM 50.0 °F - 50.0 °F 100% 30.02 in 5.0 mi East 4.6 mph - 0.00 in   Overcast
5:45 AM 50.0 °F - 50.0 °F 100% 30.00 in 2.0 mi East 5.8 mph - 0.00 in   Overcast
5:53 AM 50.0 °F - 50.0 °F 100% 30.00 in 1.8 mi East 3.5 mph - 0.00 in   Overcast
6:53 AM 50.0 °F - 50.0 °F 100% 29.99 in 2.0 mi East 3.5 mph - N/A   Overcast
7:11 AM 50.0 °F - 50.0 °F 100% 29.97 in 1.2 mi East 4.6 mph - N/A   Overcast
7:20 AM 51.8 °F - 50.0 °F 94% 29.97 in 0.8 mi East 4.6 mph - N/A   Mist
7:51 AM 51.8 °F - 50.0 °F 94% 29.96 in 1.0 mi East 4.6 mph - N/A   Mist
7:53 AM 51.1 °F - 50.0 °F 96% 29.96 in 1.0 mi East 5.8 mph - N/A   Overcast
8:37 AM 51.8 °F - 51.8 °F 100% 29.96 in 0.8 mi SE 5.8 mph - 0.00 in   Mist
8:53 AM 52.0 °F - 51.1 °F 97% 29.97 in 0.2 mi SSE 4.6 mph - 0.00 in Fog Fog
9:00 AM 51.8 °F - 51.8 °F 100% 29.97 in 0.5 mi SSE 5.8 mph - 0.00 in Fog , Rain Light Rain
9:07 AM 51.8 °F - 51.8 °F 100% 29.98 in 0.2 mi South 4.6 mph - 0.00 in Fog , Rain Light Rain
9:53 AM 53.1 °F - 53.1 °F 100% 29.96 in 0.2 mi South 5.8 mph - 0.01 in Fog , Rain Light Rain
10:00 AM 53.6 °F - 53.6 °F 100% 29.96 in 0.8 mi South 5.8 mph - 0.00 in Rain Light Rain
10:12 AM 53.6 °F - 53.6 °F 100% 29.96 in 1.0 mi South 4.6 mph - 0.01 in Rain Light Rain
10:42 AM 53.6 °F - 53.6 °F 100% 29.93 in 2.5 mi South 6.9 mph - 0.01 in Rain Light Rain
10:53 AM 54.0 °F - 54.0 °F 100% 29.92 in 2.0 mi South 6.9 mph - 0.01 in Rain Light Rain
11:00 AM 53.6 °F - 53.6 °F 100% 29.95 in 4.0 mi WSW 10.4 mph 21.9 mph 0.00 in Rain Light Rain
11:05 AM 53.6 °F - 53.6 °F 100% 29.96 in 1.8 mi WNW 17.3 mph 32.2 mph 0.04 in Rain Heavy Rain
11:13 AM 53.6 °F - 53.6 °F 100% 29.95 in 3.0 mi WNW 12.7 mph 21.9 mph 0.06 in Rain Heavy Rain
11:17 AM 53.6 °F - 53.6 °F 100% 29.94 in 3.0 mi WNW 12.7 mph - 0.07 in Rain Light Rain
11:24 AM 53.6 °F - 53.6 °F 100% 29.93 in 2.5 mi West 4.6 mph - 0.09 in Rain Rain
11:41 AM 53.6 °F - 53.6 °F 100% 29.94 in 5.0 mi West 6.9 mph - 0.11 in Rain Light Rain
11:49 AM 53.6 °F - 53.6 °F 100% 29.93 in 1.8 mi West 4.6 mph - 0.13 in Rain Heavy Rain
11:53 AM 54.0 °F - 53.1 °F 97% 29.91 in 1.8 mi West 4.6 mph - 0.13 in Rain Rain
11:57 AM 53.6 °F - 53.6 °F 100% 29.92 in 3.0 mi WSW 5.8 mph - 0.00 in Rain Light Rain
12:15 PM 55.4 °F - 53.6 °F 94% 29.91 in 8.0 mi West 6.9 mph - 0.00 in Rain Light Rain
12:42 PM 55.4 °F - 53.6 °F 94% 29.90 in 9.0 mi WNW 9.2 mph - 0.00 in   Overcast
12:53 PM 55.0 °F - 54.0 °F 96% 29.90 in 6.0 mi WNW 9.2 mph - 0.00 in   Overcast
1:01 PM 55.4 °F - 53.6 °F 94% 29.90 in 10.0 mi WNW 10.4 mph - N/A   Overcast
1:53 PM 55.9 °F - 53.1 °F 90% 29.89 in 10.0 mi WNW 13.8 mph - N/A   Overcast
2:00 PM 55.4 °F - 53.6 °F 94% 29.90 in 10.0 mi WNW 12.7 mph - N/A   Overcast
2:28 PM 55.4 °F - 53.6 °F 94% 29.91 in 10.0 mi WNW 10.4 mph - N/A   Mostly Cloudy
2:53 PM 55.9 °F - 52.0 °F 87% 29.91 in 10.0 mi WNW 12.7 mph - N/A   Scattered Clouds
3:18 PM 55.4 °F - 51.8 °F 88% 29.92 in 10.0 mi NW 10.4 mph - N/A   Mostly Cloudy
3:53 PM 55.0 °F - 46.9 °F 74% 29.94 in 10.0 mi NW 20.7 mph 25.3 mph N/A   Mostly Cloudy
4:03 PM 53.6 °F - 44.6 °F 72% 29.95 in 10.0 mi NW 29.9 mph 39.1 mph N/A   Mostly Cloudy
4:53 PM 52.0 °F - 42.1 °F 69% 29.99 in 10.0 mi NW 21.9 mph 31.1 mph N/A   Mostly Cloudy
5:53 PM 46.9 °F - 37.0 °F 68% 30.03 in 10.0 mi NW 27.6 mph 34.5 mph N/A   Clear
6:53 PM 44.1 °F 35.7 °F 35.1 °F 71% 30.09 in 10.0 mi NW 20.7 mph 27.6 mph N/A   Partly Cloudy
7:53 PM 41.0 °F 32.5 °F 33.1 °F 73% 30.12 in 10.0 mi NW 17.3 mph 24.2 mph N/A   Clear
8:53 PM 37.9 °F 28.2 °F 27.0 °F 65% 30.15 in 9.0 mi NNW 18.4 mph 28.8 mph 0.00 in Snow Light Snow
9:53 PM 36.0 °F 26.3 °F 25.0 °F 64% 30.19 in 9.0 mi NNW 16.1 mph 23.0 mph 0.00 in Snow Light Snow
10:53 PM 34.0 °F 22.7 °F 26.1 °F 73% 30.21 in 9.0 mi NNW 19.6 mph 25.3 mph 0.00 in Snow Light Snow
11:53 PM 33.1 °F 21.2 °F 24.1 °F 70% 30.24 in 9.0 mi NNW 20.7 mph 27.6 mph 0.00 in Snow Light Snow